Location: Rodson Ranch
(38.7188°N, 119.3202°W)
Time: 17:03:13
(UTC+00:00)

Cosmos 44 Rocket - Pass Details

Date: 29 October 2020
Orbit: 642 x 748 km, 65.1° (Epoch: 23 November)

Event Time Altitude Azimuth Distance (km) Brightness Sun altitude
Exits shadow 12:10:28 34° 181° (S) 1,216 4.4 -26.1°
Drops below altitude 10° 12:13:28 10° 166° (SSE) 2,255 6.0 -25.5°
Sets 12:15:53 0° 162° (SSE) 3,173 6.9 -25.0°
